Location: Bernadets
(43.3537°N, 0.3167°E)
Time: 19:02:53
(UTC+00:00)

Okean-O - Pass Details

Date: 03 June 2022
Orbit: 638 x 640 km, 98.1° (Epoch: 28 June)

Event Time Altitude Azimuth Distance (km) Brightness Sun altitude
Rises 20:11:51 0° 188° (S) 2,929 5.7 -6.4°
Reaches altitude 10° 20:14:13 10° 198° (SSW) 2,025 5.0 -6.7°
Maximum altitude 20:18:13 33° 263° (W) 1,079 4.3 -7.3°
Drops below altitude 10° 20:22:14 10° 328° (NNW) 2,038 6.7 -7.9°
Sets 20:24:38 0° 338° (NNW) 2,952 7.3 -8.2°
